SCP
0 0 0 0 0 0 0 0 0 0 1 1 1 1 1 1 1 1 1 0 0 0 0 0 0 -0 0
-0 -0 -0 -0 -0 0 0 0 0 0 0 1 1 1 1 1 1 1 1 1 0 0 0 0 0 0 0
-0 -0 -0 -0 -0 -0 0 0 0 0 0 0 1 1 1 1 1 1 1 1 0 0 0 0 0 0 0
-0 -0 -0 -0 -0 -0 -0 0 0 0 0 0 0 0 1 1 1 1 1 0 0 0 0 0 0 0 0
-0 -0 -0 -0 -0 -0 -0 0 0 0 1 0 1 0 0 0 1 1 1 1 0 0 0 0 0 0 0
-0 -0 -0 -0 -0 -0 0 0 0 0 0 1 1 1 0 0 0 1 1 0 0 0 0 0 0 0 0
-0 -0 -0 -0 -0 -0 -0 0 0 0 0 1 1 1 0 1 0 1 1 0 0 0 0 0 0 0 0
-0 -0 -0 -0 -0 -0 -0 0 0 0 0 0 1 0 1 1 1 1 1 0 1 0 0 0 0 0 0
-0 -0 -0 -0 -0 -0 -0 -0 0 0 0 0 0 1 1 1 1 1 1 1 1 0 0 0 0 0 0
-0 -0 -0 -0 -0 -0 -0 -0 0 0 0 0 0 0 0 1 1 1 1 1 0 0 0 0 0 0 0
0 0 -0 -0 -0 -0 -0 -0 0 0 0 0 0 0 0 0 1 1 1 1 1 0 0 0 0 0 0
0 0 -0 -0 -0 -0 -0 -0 -0 0 0 0 0 0 0 0 0 1 1 0 0 0 0 0 0 0 0
0 -0 -0 0 -0 -0 -0 -0 0 0 0 0 0 0 0 0 0 0 0 0 0 0 0 0 0 0 0
0 0 0 -0 -0 0 -0 -0 -0 0 0 0 0 0 0 0 0 0 0 0 0 0 0 0 0 0 0
0 0 0 0 -0 0 0 -0 0 -0 0 0 0 0 0 0 0 0 0 0 0 0 0 0 0 0 0
0 0 0 0 0 -0 -0 -0 0 0 0 0 0 0 0 0 0 0 0 0 0 0 0 0 0 0 0
Wind_Speed_500mb
54 46 43 48 40 51 59 62 67 73 79 78 79 79 73 71 68 63 59 54 53 51 47 46 48 54 42
62 61 50 52 52 47 56 65 67 71 80 80 83 82 77 76 73 70 65 60 58 55 50 49 52 53 45
72 70 66 60 57 52 47 58 72 75 77 82 84 84 82 80 78 74 70 65 62 58 53 53 57 60 50
72 70 71 70 62 57 56 45 50 70 78 80 84 85 86 86 83 80 76 70 67 64 60 58 63 63 59
67 65 62 68 69 62 61 46 48 49 67 78 82 89 91 91 88 84 81 77 74 72 69 69 67 66 57
62 64 61 62 69 67 65 60 47 44 44 75 83 89 96 96 95 92 90 86 81 77 76 76 72 73 56
60 64 66 64 66 69 69 66 61 55 46 51 83 88 96 94 99 99 97 92 89 81 78 81 77 80 65
63 66 68 67 67 70 70 70 66 60 62 43 60 86 94 94 98 103 103 99 93 90 80 83 82 85 73
63 63 63 65 59 62 68 65 65 63 61 72 52 58 87 93 99 104 105 102 99 96 89 84 89 89 79
54 64 69 74 71 69 69 65 57 52 64 67 68 88 84 88 98 104 110 108 109 109 101 91 92 93 87
55 53 60 66 73 75 75 69 65 61 62 56 73 87 94 92 98 109 111 109 107 110 101 99 90 95 93
50 58 64 64 71 74 72 73 69 66 55 64 72 69 72 91 78 109 115 113 93 83 88 103 99 94 95
59 59 61 61 58 66 69 74 77 76 68 73 67 81 81 78 109 83 109 120 106 111 103 106 107 105 105
58 58 55 61 67 66 64 54 53 60 57 54 75 69 78 65 97 123 78 103 107 116 98 94 55 72 85
70 64 69 68 71 75 77 77 79 71 69 61 49 63 77 73 75 76 75 106 106 105 90 69 28 21 68
62 62 63 68 69 67 65 72 77 75 76 72 70 56 74 78 73 86 95 85 92 100 80 74 65 61 61
Wind_Direction_500mb
302 291 288 288 284 260 235 235 235 235 232 227 223 222 217 213 212 211 209 207 206 203 198 188 178 167 163
298 296 291 282 281 278 263 233 237 235 233 229 227 223 221 215 213 212 211 207 206 205 201 192 180 169 162
297 294 291 284 281 280 279 258 233 238 230 230 227 226 222 220 215 214 212 209 207 207 204 195 185 177 172
289 294 290 285 281 280 274 278 251 239 234 229 227 228 225 223 218 215 213 211 209 208 205 198 193 186 185
286 291 293 285 282 277 277 275 250 234 237 228 228 228 227 225 220 218 215 212 210 210 206 200 196 188 195
288 287 287 287 280 276 273 274 269 238 232 232 230 227 228 224 218 218 216 214 211 214 209 203 197 190 199
285 284 284 283 281 278 272 269 269 256 222 237 237 232 230 225 220 218 218 213 211 214 209 206 200 196 202
278 278 281 282 280 280 274 269 267 264 250 229 242 236 235 227 224 219 218 215 211 213 210 207 204 200 202
275 278 278 278 278 277 275 271 264 262 257 249 236 241 239 235 228 221 219 216 212 211 212 208 206 203 202
272 271 270 271 271 266 268 269 265 267 259 254 247 233 242 240 230 225 220 217 215 209 209 209 205 206 205
265 272 276 276 274 269 267 265 260 253 257 253 252 232 234 241 235 225 221 216 209 200 208 208 207 206 205
278 272 266 269 270 272 267 265 265 259 249 246 244 254 242 237 235 224 220 215 207 202 203 201 205 208 202
278 273 271 264 273 275 271 266 264 264 261 250 247 245 239 231 237 234 216 207 203 204 203 196 199 203 199
276 273 269 271 268 260 262 263 270 267 264 266 246 242 242 245 219 220 208 184 196 203 192 187 164 179 186
271 271 264 260 261 260 257 262 258 255 259 248 248 250 245 243 229 218 205 200 206 194 201 194 171 164 181
281 277 274 268 265 261 262 266 265 265 261 258 243 244 245 240 235 222 221 215 207 190 192 195 202 201 174
Wind_Speed_850mb
54 46 43 48 40 51 59 62 67 73 79 78 79 79 73 71 68 63 59 54 53 51 47 46 48 54 42
62 61 50 52 52 47 56 65 67 71 80 80 83 82 77 76 73 70 65 60 58 55 50 49 52 53 45
72 70 66 60 57 52 47 58 72 75 77 82 84 84 82 80 78 74 70 65 62 58 53 53 57 60 50
72 70 71 70 62 57 56 45 50 70 78 80 84 85 86 86 83 80 76 70 67 64 60 58 63 63 59
67 65 62 68 69 62 61 46 48 49 67 78 82 89 91 91 88 84 81 77 74 72 69 69 67 66 57
62 64 61 62 69 67 65 60 47 44 44 75 83 89 96 96 95 92 90 86 81 77 76 76 72 73 56
60 64 66 64 66 69 69 66 61 55 46 51 83 88 96 94 99 99 97 92 89 81 78 81 77 80 65
63 66 68 67 67 70 70 70 66 60 62 43 60 86 94 94 98 103 103 99 93 90 80 83 82 85 73
63 63 63 65 59 62 68 65 65 63 61 72 52 58 87 93 99 104 105 102 99 96 89 84 89 89 79
54 64 69 74 71 69 69 65 57 52 64 67 68 88 84 88 98 104 110 108 109 109 101 91 92 93 87
55 53 60 66 73 75 75 69 65 61 62 56 73 87 94 92 98 109 111 109 107 110 101 99 90 95 93
50 58 64 64 71 74 72 73 69 66 55 64 72 69 72 91 78 109 115 113 93 83 88 103 99 94 95
59 59 61 61 58 66 69 74 77 76 68 73 67 81 81 78 109 83 109 120 106 111 103 106 107 105 105
58 58 55 61 67 66 64 54 53 60 57 54 75 69 78 65 97 123 78 103 107 116 98 94 55 72 85
70 64 69 68 71 75 77 77 79 71 69 61 49 63 77 73 75 76 75 106 106 105 90 69 28 21 68
62 62 63 68 69 67 65 72 77 75 76 72 70 56 74 78 73 86 95 85 92 100 80 74 65 61 61
Wind_Direction_850mb
302 291 288 288 284 260 235 235 235 235 232 227 223 222 217 213 212 211 209 207 206 203 198 188 178 167 163
298 296 291 282 281 278 263 233 237 235 233 229 227 223 221 215 213 212 211 207 206 205 201 192 180 169 162
297 294 291 284 281 280 279 258 233 238 230 230 227 226 222 220 215 214 212 209 207 207 204 195 185 177 172
289 294 290 285 281 280 274 278 251 239 234 229 227 228 225 223 218 215 213 211 209 208 205 198 193 186 185
286 291 293 285 282 277 277 275 250 234 237 228 228 228 227 225 220 218 215 212 210 210 206 200 196 188 195
288 287 287 287 280 276 273 274 269 238 232 232 230 227 228 224 218 218 216 214 211 214 209 203 197 190 199
285 284 284 283 281 278 272 269 269 256 222 237 237 232 230 225 220 218 218 213 211 214 209 206 200 196 202
278 278 281 282 280 280 274 269 267 264 250 229 242 236 235 227 224 219 218 215 211 213 210 207 204 200 202
275 278 278 278 278 277 275 271 264 262 257 249 236 241 239 235 228 221 219 216 212 211 212 208 206 203 202
272 271 270 271 271 266 268 269 265 267 259 254 247 233 242 240 230 225 220 217 215 209 209 209 205 206 205
265 272 276 276 274 269 267 265 260 253 257 253 252 232 234 241 235 225 221 216 209 200 208 208 207 206 205
278 272 266 269 270 272 267 265 265 259 249 246 244 254 242 237 235 224 220 215 207 202 203 201 205 208 202
278 273 271 264 273 275 271 266 264 264 261 250 247 245 239 231 237 234 216 207 203 204 203 196 199 203 199
276 273 269 271 268 260 262 263 270 267 264 266 246 242 242 245 219 220 208 184 196 203 192 187 164 179 186
271 271 264 260 261 260 257 262 258 255 259 248 248 250 245 243 229 218 205 200 206 194 201 194 171 164 181
281 277 274 268 265 261 262 266 265 265 261 258 243 244 245 240 235 222 221 215 207 190 192 195 202 201 174